CAPE
1257 1602 1427 1386 1314 1550 1646 1996 1912 1670 1552 1810 2182 2193 2296 2351 2192 2155 2473 2872 2556 2684 2835 2887 2950 2871 2694 2691 2522 2815 3496 3261 2986 3562 3987 4045 3845 3542 3738 4220 3781 3479 3409 3226 2986 3093 3241 3210 3279 3353 3655 3476 3280 2975 2935 3150 3309 3154 2929 3013 3234 3464 3754 4055 3844 3540 3323 2197 2367 3032 2655 2437 2217 2344 2332 2300 2045 2117 1804 1675 1691 1529 1108 630 443
1821 1981 1894 1365 1276 1461 1429 1599 1769 1652 1525 1598 1898 1959 2053 2319 2382 2447 2274 2672 2603 2422 2726 2665 2736 2820 2680 2846 2714 3050 3397 3697 3412 3018 3415 3799 3725 3541 3454 3928 3922 3202 3369 3619 3238 2875 2932 3020 3182 3243 3438 3547 3380 3081 2988 2522 2519 2746 2787 2872 3170 3185 3683 4091 4038 3508 2880 3263 3384 3510 2670 2505 2502 2698 2406 2354 2286 2286 2084 1667 1128 645 535 578 364
2383 2489 2552 1923 1735 1456 1419 1307 1487 1484 1255 1209 1292 1556 1739 2009 2229 2315 2196 2231 2534 2478 2541 2410 2613 2805 2674 2863 3241 3190 3737 3470 3068 3179 3358 3934 3892 3313 2868 3488 3733 3557 3498 3313 2734 3014 2914 2771 2710 2756 2670 2957 3165 2770 2426 2308 2346 2638 2887 2815 3067 3267 3210 3886 4447 3962 3307 2994 2171 2205 2153 2026 2164 2283 2162 2063 2091 1860 2166 1475 811 466 543 490 370
2351 2684 2778 2481 2182 1929 1559 1215 1072 1246 1074 985 932 1274 1366 1563 1941 2091 2095 1957 2099 2453 2448 2455 2798 2981 2884 3082 3472 3222 3413 3275 3217 3305 3707 3895 3925 4098 3625 3574 3498 3596 3325 3134 3090 3184 2974 2924 2650 2678 2782 2766 2575 2599 2519 2460 2616 2750 2797 3130 3262 3520 3654 3376 3988 4259 3655 3098 3209 2464 2768 2851 2865 2428 2213 1787 1410 1439 1522 1562 1195 696 720 442 254
2418 2540 2730 2688 2461 1822 1590 1414 1137 1060 1079 911 838 856 1063 1164 1590 1916 1888 1794 1862 2126 2312 2590 2701 3074 2577 2895 3230 3389 3319 3342 3460 3255 3280 3294 3444 3414 3546 3682 3801 3766 3526 3443 3328 3152 3010 2836 2629 2752 2685 2476 2842 2962 2695 3017 3034 2778 2647 2724 2871 3015 3225 3260 3411 3354 3151 2965 2808 2721 2780 2730 2482 2424 2387 1890 1296 1004 1100 1490 1577 1282 1351 796 198
2501 2357 2484 2379 2421 2287 1740 1596 1512 1386 1234 1032 892 877 887 977 1321 1774 1783 1823 1911 1937 2229 2268 2304 2794 2672 2682 2953 3154 3093 3261 3390 3405 2996 2979 3055 3073 3379 3580 3547 3653 3705 3470 3464 3516 3388 3340 3148 2611 2388 2199 1943 2232 2767 2600 2486 2371 2762 2824 2682 2652 2522 2500 2438 2549 2686 2734 2564 2341 2278 2136 2375 2611 2585 2448 1798 1230 1288 1214 1085 995 1377 1429 925
2513 2483 2646 2349 2431 2250 2047 1680 1819 1660 1697 1424 1191 1051 908 896 1116 1400 1726 1788 2023 1997 1898 2196 2202 2170 2355 2171 2224 2800 3104 3058 3175 3333 3184 3074 3147 3159 2939 3151 3175 3110 3437 3245 2934 2704 2489 2405 2512 2494 2348 2341 2090 2067 2285 2572 2372 2468 2365 2467 2653 2367 2244 1872 1821 1994 2121 1872 1777 1689 1638 1525 1571 1609 1526 1900 2474 2910 2048 1422 1578 1297 1311 1658 1846
2518 2450 2178 2408 2249 2234 1916 1969 1871 2048 2087 2074 2052 1745 1359 1030 1120 1139 1424 1746 1877 1953 1744 1728 1967 1756 1699 1781 1894 2132 2550 2724 2883 2993 3058 2821 2686 2733 2640 2510 2356 2666 2774 2788 2478 2150 2247 2174 1862 1673 1920 2192 2341 2266 2201 2064 2058 2010 1999 2272 2566 2511 2480 2050 1941 1922 1801 1667 1433 1126 1271 1649 2069 1793 1490 1451 1652 1589 1483 976 750 1110 1360 1676 1666
1450 1662 1917 2046 2157 2074 1884 2153 2459 2461 2349 2559 3012 2639 2094 1756 1373 1176 1175 1344 1610 1740 1704 1551 1710 1788 1560 1495 1600 1602 1569 1837 1854 2244 2427 2244 2308 2248 2222 2228 2212 2164 2133 2100 2104 2154 2080 1686 1556 1378 1326 1458 2321 3234 3102 3300 2359 1817 1994 2102 2160 2076 2229 2087 1902 1927 2075 1896 1950 1765 1474 1497 1671 1620 1060 933 942 980 1064 1227 1358 1418 890 684 999
1823 1809 1690 1805 2003 2335 2718 2753 2198 2391 2857 3210 3369 3216 2801 2390 1774 1614 1431 1449 1389 1432 1673 1763 1510 1445 1499 1528 1602 1251 758 767 1365 1790 2154 2010 2263 2050 1965 2077 2150 2013 2007 2122 1871 1812 1776 1774 1279 1407 1892 2271 3380 4066 3086 2504 2268 2347 2525 2257 2311 2240 2022 2103 1976 1839 1690 1666 1620 1155 950 698 505 441 439 470 463 377 372 452 718 947 1091 1262 1240
1955 1943 1721 1726 1802 1780 1781 1951 2223 2489 2468 2114 2611 3331 2730 2527 2102 1953 1922 1811 1738 1552 1525 1487 1351 1041 960 1015 1122 959 313 240 1800 1460 1245 1008 1630 1752 1939 2201 2390 2360 2146 2189 2148 1897 1720 1568 1607 1492 2758 3845 3626 3157 3062 2630 2313 1976 1756 1871 2618 3004 2177 1990 1939 1708 1867 1477 1144 1034 914 828 1020 1170 859 388 167 223 490 734 908 963 1242 1409 1300
1503 1441 1637 1630 1542 1474 1488 1267 1407 1542 1829 2132 2244 2295 2270 1902 2116 2410 2281 1978 2137 1796 1893 1652 1513 1085 530 462 483 532 474 807 1282 1260 1203 1105 1531 1846 1596 1607 1572 1778 1861 1820 1758 1630 1585 1448 1316 1147 1241 1756 2057 3502 3786 2919 2405 2176 1900 1839 1848 1786 2052 2806 2635 2304 2209 1652 1394 1259 1194 1073 1021 1070 482 201 501 944 1342 1630 1796 1883 1848 1729 1759
1171 1123 1214 1178 1201 1365 1342 1228 1383 1428 1640 1745 1864 2133 2024 1913 1839 2083 2417 2348 2144 2335 2262 2025 1938 1827 1191 993 924 734 742 1258 1065 998 972 783 720 993 1351 1307 1339 1338 1388 1625 1826 1927 1972 1766 1568 1100 834 902 1614 1971 2528 3430 3687 2846 2560 2222 1977 1886 1888 1710 1656 2837 2407 2314 2272 2031 1771 1498 1561 1416 1332 2012 2831 2880 2724 1955 1719 1865 1894 1954 2016
891 821 828 926 1160 1581 1827 1816 2003 1923 1786 1852 1590 1431 1635 1638 1831 2071 2341 2423 2230 2348 2203 2137 2131 2193 2020 1804 1752 1608 1390 1064 744 697 592 480 486 695 1385 1204 1264 1260 1409 1540 1616 1666 1929 2377 2519 2242 1937 2058 2544 2880 3174 3442 3457 3900 4440 4454 4352 3947 2795 2300 1824 1548 1650 2006 2114 2203 2333 2571 2594 2734 2683 3064 3234 3064 3069 2881 3126 2516 2509 2725 2872
789 753 722 665 733 818 791 1221 1509 1619 1652 1673 1338 910 1004 1306 1501 1937 1963 1907 1958 2155 1997 2018 1988 1965 1987 2088 2118 1814 1676 1152 1076 966 717 471 442 430 1077 1221 1006 1101 1326 1599 1937 1948 1944 1890 2254 2572 2844 3084 2946 3164 3501 3607 3500 3128 3118 3115 2772 2566 2325 2191 2756 2686 2495 1919 2324 2598 2545 2566 2728 2829 2816 2877 2817 2670 2905 3313 3315 3338 3377 3497 3277
760 744 737 709 683 652 687 713 815 921 1023 1233 1128 849 933 817 1002 1201 1450 1785 1771 1712 1893 1764 1863 1988 2146 2310 2264 2087 1337 1007 1052 1006 880 680 645 619 1054 1634 1668 1552 1569 1746 1900 2200 2370 2466 2684 2878 3124 3242 3267 2631 2705 2637 2685 2709 2875 2944 2849 2761 2124 1891 2079 2250 2107 1408 1295 1396 1495 1471 1472 1982 2433 1824 1883 1908 1938 1887 2008 2360 2833 2893 2613
606 611 646 650 638 632 627 623 614 612 619 664 741 680 616 696 746 968 1021 1258 1632 1698 1828 1923 2061 2095 2199 2361 2289 2424 1751 1346 1183 1076 979 841 767 1252 1513 1640 1856 2054 1894 1991 2132 2190 2268 2485 2862 2626 2819 2999 3578 2296 1999 1877 2269 2531 2759 2726 2310 1892 1343 1154 1639 1720 1802 1518 1345 1268 1132 1002 1034 1017 946 910 912 1354 1383 1463 1649 1892 2223 2217 2080
464 517 546 572 536 498 487 476 464 481 448 522 477 450 379 500 543 766 1044 1240 1238 1416 1882 1734 1977 2134 2279 2283 2034 2202 1772 1573 1586 1387 1160 887 857 1640 2166 2234 2089 2226 2240 2221 2272 2309 2535 2548 2670 2736 2499 3027 2691 1982 1677 1471 2124 2490 2805 2808 2800 2378 2275 1754 1164 1630 1510 1281 1505 1571 1562 1520 1476 1456 1392 1286 1190 1092 1055 1266 1700 1867 1983 2092 1994
406 462 499 438 340 328 322 328 301 309 155 56 380 418 400 362 121 504 671 909 974 1066 1541 1816 1671 1833 1752 1763 1905 1667 1597 1323 1350 1367 1280 1198 1172 2048 2040 2411 2440 2480 2296 2256 2544 2563 2602 2472 2325 2088 2117 1873 1700 1430 1005 733 1443 2160 2707 2794 2693 2686 2459 2215 2114 2353 2578 2437 2721 2220 2387 2658 2208 2238 2090 1878 1648 1499 1327 1302 1566 1768 1858 1910 1974
399 332 326 323 283 268 282 322 320 322 310 4 82 223 237 329 388 399 427 559 647 804 927 978 1430 1492 1515 1432 1164 1405 1375 1381 1276 1290 1295 1227 1185 1450 2594 2644 2589 2499 2610 2479 2452 2421 2296 2394 2193 1744 1348 905 731 710 753 755 744 1734 2201 2405 2306 2512 2611 2254 2292 2033 1990 1973 2027 2154 2385 2659 2472 2940 3373 3605 3131 2799 2340 1915 1749 1705 1732 1768 1884
322 320 304 370 334 250 252 314 341 336 218 4 116 216 13 260 352 386 529 634 542 624 604 588 820 896 960 964 1012 985 1132 796 764 1034 1100 1136 1184 1227 1811 1979 2192 2307 2248 1977 2088 2064 2117 1862 1462 1324 1255 1164 1125 1048 999 991 993 1188 1717 1996 1553 1415 1454 1504 1706 1676 1883 2086 2148 2196 2342 2515 2462 2462 2794 2769 2658 2653 2640 2298 2148 2033 1870 1659 1468
303 282 252 238 291 312 259 189 213 252 258 17 12 16 110 230 162 286 314 410 281 383 365 387 417 563 547 337 340 417 647 620 814 872 949 964 893 856 1244 1302 1327 1288 1537 1352 1778 1449 1703 2239 1682 1504 1338 1211 1069 1028 1062 1037 1052 1026 1393 1091 1083 1098 1128 1060 1058 1429 1792 1818 1932 2035 1760 1933 1971 1746 1623 1987 1624 1321 1640 2205 2372 1930 1412 1642 1719
196 212 211 205 192 213 232 234 192 64 2 7 6 4 4 54 126 222 180 235 226 221 269 268 269 340 388 300 378 379 387 475 612 681 706 718 726 680 648 618 691 830 1013 1106 1121 950 843 810 1059 1179 1095 1052 1014 880 894 872 873 920 943 921 903 895 904 877 945 1354 1561 1564 1694 1827 1890 1790 1942 2089 2232 2225 1959 1871 2214 2239 2203 1903 1956 1915 1842
164 227 232 214 194 136 127 161 154 127 0 0 0 0 1 4 39 31 102 67 39 31 131 113 163 171 184 189 192 259 188 185 221 314 420 457 479 483 476 470 452 512 582 664 681 742 717 668 687 725 702 723 710 681 789 831 798 770 674 664 661 672 669 673 647 1080 1260 1340 1468 1464 1509 1717 1157 1550 2167 2080 1531 2047 2276 2040 2307 2150 2283 2147 2211
0 12 168 215 234 189 125 127 154 136 102 21 0 0 0 0 0 0 0 5 8 11 21 61 120 166 185 166 170 168 31 26 43 55 84 129 181 223 262 290 314 340 386 431 481 492 496 428 389 426 466 498 525 513 525 537 519 481 414 386 365 391 431 694 805 1032 1081 1006 904 1100 1196 1274 1304 1207 1700 1806 1604 1481 1564 1994 1999 2040 2119 2242 2197
0 0 0 0 74 92 119 68 106 77 12 0 0 0 0 0 0 0 0 0 0 0 0 11 14 16 47 85 70 10 9 7 5 5 10 7 2 0 11 66 124 185 248 290 302 336 343 330 302 315 366 429 401 363 335 296 216 183 168 137 290 420 378 398 396 607 776 606 445 460 392 715 880 1102 1233 1302 1395 1598 1639 1736 1762 1812 2090 2237 2231
0 0 0 0 0 0 0 0 0 0 0 0 0 0 0 0 0 0 0 0 0 0 0 0 0 2 5 5 17 5 3 9 0 0 0 0 0 1 59 87 46 12 138 105 136 246 114 173 229 270 304 274 257 241 271 169 431 786 633 424 134 152 168 222 258 266 258 237 234 424 253 338 658 888 1034 1038 1102 1194 1240 1293 1347 1305 1089 1095 1271
0 0 0 0 0 0 0 0 0 0 0 0 0 0 0 0 0 0 0 0 0 0 0 0 0 0 0 0 9 10 0 1 0 0 0 0 0 0 0 14 28 17 4 48 36 36 29 29 144 161 517 460 459 395 392 86 127 76 74 75 150 214 314 344 436 403 484 446 489 497 514 542 536 561 618 758 862 934 991 1013 1121 1247 1218 1277 1469
1 1 0 0 0 0 0 0 0 0 0 0 0 0 0 0 0 0 0 0 0 0 0 0 0 0 0 0 0 0 0 0 0 0 0 0 0 0 0 0 0 0 0 0 0 16 94 21 25 3 9 8 14 12 2 4 68 42 53 68 22 99 147 101 35 37 36 32 46 70 76 81 102 139 139 146 196 231 354 686 806 913 986 1049 1036
1 0 0 0 0 0 0 0 0 0 0 0 0 0 0 0 0 0 0 0 0 0 0 0 0 0 0 0 0 0 0 0 0 0 0 0 0 0 0 0 0 0 0 0 1 3 12 0 1 0 0 0 0 0 0 0 0 0 0 0 0 1 4 3 5 6 1 6 8 5 3 3 13 23 16 17 41 59 37 70 450 688 678 696 722
0 0 0 0 0 0 0 0 0 0 0 0 0 0 0 0 0 0 0 0 0 0 0 0 0 0 0 0 0 0 0 0 0 0 0 0 0 0 0 0 0 0 0 0 0 43 8 2 0 0 0 0 0 0 0 0 0 0 0 0 0 0 0 0 0 0 0 0 0 0 0 3 9 8 10 5 2 2 2 20 72 209 289 400 470
0 0 0 0 0 0 0 0 0 0 0 0 0 0 0 1 2 0 0 0 0 0 0 0 0 0 0 0 0 0 0 0 0 0 0 0 0 0 0 0 0 0 0 0 10 12 0 1 0 0 0 0 0 0 0 0 0 0 0 0 0 0 0 0 0 0 0 0 0 0 0 0 0 1 0 1 1 0 1 0 1 7 23 62 123
0 0 0 0 0 0 0 0 0 0 0 0 0 0 0 0 1 6 0 0 0 0 0 0 0 0 0 0 0 0 0 0 0 0 0 0 0 0 0 0 0 0 0 0 58 1 2 0 0 0 0 0 1 2 1 0 0 0 0 0 0 0 0 0 0 0 0 0 0 0 0 0 0 0 0 0 0 0 0 0 0 1 4 5 2
0 0 0 0 0 0 0 0 0 0 0 0 0 0 0 0 0 0 0 8 1 0 0 0 0 0 0 0 0 0 0 0 0 0 0 0 0 0 3 0 0 0 0 6 16 8 0 0 0 0 4 1 0 2 5 4 0 0 0 0 0 0 0 0 0 0 0 0 0 0 0 0 0 0 0 0 0 0 0 0 0 0 0 0 0
0 0 0 0 0 0 0 0 0 0 0 0 0 0 0 0 0 0 0 0 0 0 2 5 0 0 0 0 0 0 0 0 0 0 0 0 0 0 2 0 18 15 4 19 8 9 3 2 2 3 5 3 4 5 3 2 3 1 0 0 0 0 0 0 0 0 0 0 0 0 0 0 0 0 0 0 0 0 0 0 0 0 0 0 0
0 0 0 0 0 0 0 0 0 0 0 0 0 0 0 0 0 0 0 0 0 0 0 0 9 0 0 0 0 0 0 0 0 0 0 0 0 0 17 14 10 10 11 17 14 4 5 7 8 6 6 6 8 6 7 3 3 2 6 0 0 0 0 0 0 0 0 0 0 0 0 0 0 0 0 0 0 0 0 0 0 0 0 0 0
0 0 0 0 0 0 0 0 1 0 0 0 0 0 0 0 0 0 0 0 0 0 0 0 0 1 22 12 1 0 0 0 0 0 0 0 0 0 5 1 0 2 4 7 12 15 9 10 10 8 6 6 6 7 8 4 4 4 4 8 5 0 0 0 0 0 0 0 0 0 0 0 0 0 0 0 0 0 0 0 0 0 0 0 0
0 0 0 0 0 0 0 0 0 0 0 0 0 0 0 0 0 0 0 0 0 0 0 0 0 0 0 0 0 0 0 0 0 0 0 0 0 13 11 14 13 9 4 7 13 15 16 14 15 14 12 9 8 10 9 9 7 6 8 9 7 7 0 0 0 1 0 0 0 0 0 0 0 0 0 0 0 0 0 0 0 0 0 0 0
0 0 0 0 0 0 0 0 0 0 0 0 0 0 0 0 0 0 0 0 0 0 0 0 0 0 0 2 2 2 0 0 0 0 0 0 2 4 6 11 12 12 11 14 14 17 19 17 18 11 9 13 13 16 14 10 10 10 13 9 4 6 4 8 6 6 0 0 0 0 0 0 0 0 0 0 0 0 0 0 0 0 0 0 0
0 0 0 0 0 0 0 0 0 0 0 0 0 0 0 0 0 0 0 0 0 0 0 0 1 4 6 9 10 4 0 0 0 0 0 0 0 6 10 12 14 17 18 22 29 28 24 21 16 17 15 15 17 12 11 6 6 6 8 6 7 6 9 8 9 4 1 0 0 0 0 0 0 0 0 0 0 0 0 0 0 0 0 0 0
0 0 0 0 0 0 0 0 0 0 0 0 0 0 0 0 0 0 0 0 0 0 1 3 6 3 8 0 0 0 3 1 0 0 0 2 8 12 12 14 15 20 24 26 17 21 3 2 2 4 4 1 0 5 2 0 1 0 2 2 3 3 3 4 7 8 10 1 0 0 0 0 0 0 0 0 0 0 0 0 0 0 0 0 0
0 0 0 0 0 0 0 0 0 1 1 2 0 0 0 1 3 5 6 5 4 4 2 2 1 6 1 2 2 2 0 2 4 7 8 11 13 16 16 17 14 6 2 1 0 0 0 1 0 0 0 0 0 0 3 2 1 0 0 1 4 2 1 3 2 0 0 0 0 0 0 0 0 0 0 0 0 0 0 0 0 0 0 0 0
0 0 0 0 0 0 0 1 4 4 6 5 7 8 6 4 6 7 5 4 4 3 2 4 3 8 7 0 1 0 1 5 5 6 8 13 15 5 4 3 3 2 1 0 0 0 0 1 0 0 1 2 3 3 6 7 3 0 0 0 0 0 0 0 0 0 0 0 1 0 0 0 0 0 0 0 0 0 0 0 0 0 0 0 0
0 0 0 0 0 0 3 5 4 6 6 4 3 4 5 4 2 5 4 5 3 3 4 4 5 6 8 5 4 1 3 5 7 7 12 11 11 11 6 3 2 0 1 1 0 1 1 2 2 2 1 2 1 0 0 0 0 0 0 0 1 1 0 0 0 0 1 0 0 0 0 0 0 0 0 0 0 0 0 0 0 0 0 0 0
0 0 0 0 0 1 2 4 4 6 6 4 4 2 3 2 2 2 2 2 4 5 6 5 4 4 5 5 4 4 4 6 9 12 8 10 2 5 2 2 2 3 3 2 2 2 1 0 0 1 3 3 2 3 2 1 1 3 3 1 0 0 0 0 0 0 0 2 1 0 0 0 0 0 0 0 0 0 0 0 0 0 0 0 0
0 0 0 0 0 0 1 3 6 4 4 3 2 0 0 2 2 4 5 6 5 5 5 4 2 4 6 7 5 6 6 7 8 8 9 10 10 11 13 6 1 2 1 2 3 2 2 1 1 2 1 2 1 0 0 0 0 0 0 0 0 0 0 0 1 0 1 0 0 0 0 0 0 0 0 0 0 0 0 0 0 0 0 0 1
0 0 0 0 0 0 2 5 5 5 4 0 2 3 1 2 5 5 6 4 3 4 2 2 2 4 6 8 7 7 7 6 5 6 10 12 15 15 11 10 3 2 1 2 1 1 2 3 3 2 1 0 0 0 0 0 0 0 1 0 1 1 0 0 0 0 0 0 0 0 0 0 0 0 0 0 0 0 0 1 2 2 0 0 0
0 0 0 0 0 0 0 1 1 2 0 1 1 2 1 5 4 3 2 2 0 2 4 4 6 6 9 7 7 6 8 9 9 9 12 12 11 9 8 7 8 6 5 4 3 3 3 2 2 2 1 2 3 3 2 1 3 4 4 3 2 0 0 0 0 0 0 0 0 0 0 0 0 0 0 0 0 0 2 2 3 2 0 0 0
0 0 0 0 0 0 0 0 1 0 0 0 1 2 0 3 3 3 1 1 3 2 3 4 6 8 7 7 5 5 5 10 11 11 6 7 8 6 4 5 6 4 6 7 6 6 6 0 1 4 3 2 3 3 1 2 1 1 1 4 0 0 0 0 0 0 0 0 0 0 0 0 0 0 0 0 2 3 1 2 2 3 2 1 0
0 0 0 0 0 0 1 0 1 1 0 1 2 1 1 0 1 1 1 1 1 5 2 8 9 7 6 4 1 4 7 7 8 10 9 8 4 3 3 6 9 8 9 9 8 7 6 8 8 9 9 10 5 6 4 4 3 4 1 0 0 0 0 0 0 0 0 0 0 0 0 0 0 0 0 0 0 0 1 1 2 2 1 1 2
0 0 1 1 1 0 0 2 0 3 0 2 2 0 1 2 0 0 0 2 0 0 0 0 1 0 0 0 6 0 1 7 8 8 9 7 5 4 4 6 6 6 5 5 4 4 6 5 5 2 6 4 4 2 5 6 6 0 0 0 0 0 0 0 0 0 0 0 0 0 0 0 0 0 0 0 0 0 0 1 2 2 3 2 3
Wind_Speed
14 15 15 15 15 14 13 12 10 11 9 9 10 9 9 8 9 8 9 8 8 8 7 6 6 6 5 6 5 7 7 7 7 7 5 4 4 4 6 5 4 4 4 4 4 4 5 5 4 4 4 3 3 3 3 4 4 3 3 3 2 3 3 3 2 3 4 6 6 4 5 4 4 4 5 5 6 4 4 2 3 6 7 7 8
14 15 15 15 14 14 13 14 12 12 10 10 10 10 10 10 10 10 9 10 9 8 8 8 8 7 6 7 6 8 9 8 7 7 6 5 3 4 4 4 3 2 4 4 4 4 5 4 4 3 3 2 3 3 2 2 3 3 4 4 3 3 5 3 2 2 5 4 5 5 5 3 4 4 6 6 5 4 2 2 6 7 8 7 5
15 15 14 14 13 13 13 13 14 12 11 12 11 10 11 11 12 11 10 11 11 9 10 9 11 10 9 9 9 8 9 8 7 7 7 7 5 4 6 6 4 2 2 2 2 3 3 3 3 3 4 4 4 3 3 3 4 4 4 4 3 2 2 3 2 1 4 5 5 5 5 5 5 5 5 4 3 0 2 5 6 7 7 6 5
14 14 14 13 12 12 13 13 13 13 13 14 13 13 13 14 14 13 12 12 13 13 11 12 13 12 11 11 10 8 9 8 8 9 9 8 7 7 7 6 5 4 3 2 2 2 2 3 3 3 4 4 4 4 4 3 3 3 1 2 1 1 1 0 1 1 2 4 3 4 4 3 3 3 2 2 1 3 5 6 8 7 6 5 4
16 14 13 12 12 11 11 13 13 13 13 15 15 15 15 15 17 15 14 13 14 15 15 14 14 14 12 12 11 10 10 9 9 8 9 10 9 9 9 9 7 6 4 3 2 2 2 1 2 2 2 1 1 2 2 3 3 2 1 2 2 2 2 1 1 1 1 2 3 3 3 2 1 1 2 3 4 6 8 8 7 6 6 5 4
17 15 14 13 13 12 12 13 13 13 13 14 15 16 17 17 17 19 16 15 15 16 17 16 16 15 13 13 13 12 12 11 11 10 10 10 11 10 10 9 9 8 7 5 5 4 3 3 3 3 2 1 0 1 2 1 1 0 1 2 2 2 1 1 2 2 2 2 1 1 1 2 3 4 4 6 6 6 7 7 6 5 6 5 3
20 18 17 16 16 15 15 14 14 14 14 14 15 16 17 18 18 19 19 17 17 17 18 18 18 17 16 15 14 14 14 13 13 12 11 11 11 11 10 10 9 9 8 7 6 6 5 4 5 5 4 3 1 2 2 2 2 2 1 1 1 1 1 2 3 3 3 3 4 4 4 4 5 4 6 7 7 7 6 6 5 5 4 5 4
26 23 21 19 19 19 18 18 16 16 17 17 16 16 17 18 20 20 20 20 19 18 18 19 19 18 18 17 16 16 16 15 15 14 12 12 12 12 11 10 9 9 9 9 8 8 7 6 6 6 7 7 6 6 6 5 5 4 4 4 4 3 3 3 4 4 5 5 5 5 7 7 7 7 7 8 8 9 8 7 6 6 5 7 7
25 26 26 25 24 24 24 22 21 20 19 19 19 19 18 19 19 20 21 21 22 21 20 19 20 19 20 19 19 17 17 17 16 16 14 13 12 12 12 11 10 9 9 9 10 10 10 8 8 8 10 12 12 10 9 11 9 7 7 6 5 5 5 6 6 7 8 8 8 8 8 9 9 8 8 8 7 5 6 6 6 6 6 7 9
28 28 27 26 26 28 27 25 24 23 22 21 21 22 22 21 20 20 22 23 23 24 23 21 20 20 20 21 19 18 18 18 23 27 23 18 16 15 14 13 12 11 11 11 10 11 11 10 10 13 14 12 13 14 12 10 10 8 7 7 7 7 7 7 7 7 7 7 7 7 7 7 7 6 5 4 3 3 4 5 5 6 6 6 9
33 31 29 30 30 29 28 27 28 25 23 22 22 25 26 26 25 23 23 24 24 25 25 23 22 21 20 20 19 18 19 21 32 28 23 18 17 16 15 14 13 12 11 11 11 11 11 12 11 13 16 16 14 14 13 13 12 12 11 9 7 7 7 7 7 6 6 5 6 6 5 5 5 5 4 3 3 6 7 7 6 7 7 7 8
32 32 28 28 25 23 25 23 22 21 21 22 24 27 28 27 28 28 26 26 26 26 26 25 25 24 24 22 20 20 20 31 34 29 24 21 19 18 16 16 15 14 13 12 12 12 12 12 13 13 15 15 14 16 17 15 14 13 12 11 10 9 8 8 8 7 7 6 6 7 7 6 6 8 6 5 7 7 7 7 6 7 7 8 9
22 24 22 20 20 20 21 22 22 20 20 20 24 29 28 26 27 29 29 28 28 27 27 27 26 26 25 25 23 23 22 36 32 31 26 23 22 18 19 18 17 16 15 15 14 14 14 14 14 15 14 17 16 13 12 14 18 16 13 12 11 11 11 12 11 9 8 8 7 8 10 8 6 8 9 8 9 7 8 8 9 8 8 7 8
29 30 27 23 19 19 21 21 20 20 19 21 24 26 26 25 25 28 32 32 30 28 27 28 29 28 28 27 27 26 24 34 33 32 28 25 25 21 20 19 18 18 18 17 17 16 15 15 15 15 16 16 17 15 14 13 13 14 14 13 12 14 16 15 14 15 13 10 9 9 10 11 9 9 10 10 9 9 9 9 10 9 9 8 7
29 29 29 28 29 28 26 22 20 18 17 19 21 22 23 23 23 25 29 32 33 32 29 29 30 28 28 29 28 28 28 39 35 34 30 27 28 24 22 21 21 20 20 19 18 17 17 16 15 15 16 17 17 18 16 16 15 14 13 12 12 12 13 14 16 17 17 15 13 12 11 12 11 11 13 14 12 12 11 10 10 10 8 7 9
30 29 29 30 30 29 28 26 25 24 20 16 17 19 19 19 21 23 24 28 32 34 34 32 31 30 30 30 29 29 40 47 45 42 38 34 32 27 24 23 22 21 21 21 20 21 19 18 18 17 17 18 21 26 19 17 15 14 13 13 13 13 13 15 15 12 10 10 11 10 10 12 17 14 15 15 14 14 12 12 13 13 10 9 8
32 31 30 30 30 30 30 30 29 28 28 30 27 21 18 18 19 22 22 26 31 35 37 36 35 34 32 31 30 30 41 42 44 42 40 35 31 28 26 24 23 22 22 23 23 22 22 21 21 20 20 20 30 29 26 21 18 17 16 15 14 14 14 16 23 21 17 16 12 9 8 8 8 9 11 11 15 17 15 13 14 15 12 9 9
35 34 33 32 31 30 30 30 30 30 31 32 31 30 27 20 19 17 16 20 25 33 40 42 41 39 36 33 34 32 40 40 41 43 40 36 30 30 28 26 24 24 24 24 25 25 25 25 25 24 22 27 33 30 28 23 20 19 18 17 16 16 17 18 18 22 24 19 18 16 14 13 13 12 12 13 14 21 21 16 16 17 13 12 11
37 36 35 33 33 33 32 31 31 31 31 nan 30 30 28 21 18 17 18 19 23 30 36 40 44 44 41 36 42 36 38 42 46 45 42 38 33 31 29 28 27 27 26 26 26 28 28 28 28 27 29 35 34 33 27 22 20 19 19 19 18 18 19 20 20 20 22 23 21 20 21 20 20 21 21 20 19 23 24 20 18 19 16 14 14
37 37 36 36 35 36 36 36 35 34 33 nan nan 32 28 23 20 21 20 17 16 18 22 26 31 36 40 38 40 41 44 43 45 46 46 43 42 35 32 31 29 29 28 29 29 29 31 30 34 42 39 38 37 34 31 26 22 21 21 21 21 20 25 24 25 24 22 20 19 19 19 19 20 20 21 23 26 28 27 25 23 22 19 16 17
38 38 38 38 38 38 37 37 36 35 34 nan 33 33 nan 31 29 28 23 19 16 13 12 15 19 25 33 40 43 44 42 41 42 49 49 48 46 41 34 35 33 33 31 31 31 31 32 35 42 40 41 40 38 35 31 28 26 24 22 20 25 30 28 23 23 23 22 22 22 22 22 23 24 24 24 25 24 25 29 31 28 26 24 20 18
40 40 40 40 39 39 39 37 37 36 35 nan nan nan 32 31 32 32 30 27 27 24 19 17 17 15 17 24 32 40 45 46 44 44 43 45 47 49 43 43 43 39 35 32 33 35 35 34 40 40 40 40 37 35 30 28 27 26 25 31 31 31 30 26 25 25 25 25 25 25 25 25 27 26 26 28 27 27 25 27 27 24 24 22 21
40 40 41 40 40 40 39 40 39 nan nan nan nan nan nan nan 31 31 32 32 32 29 27 25 24 20 17 18 22 31 38 41 44 43 39 40 43 46 47 46 41 40 41 43 43 40 39 40 41 40 38 40 38 34 30 28 27 27 28 29 29 30 28 29 28 27 27 26 27 26 26 27 26 27 28 28 28 29 29 29 27 25 27 26 24
40 40 40 40 39 39 39 39 39 39 nan nan nan nan nan nan nan nan 32 nan nan nan 28 26 26 25 25 24 24 25 28 31 34 37 35 36 40 43 44 44 44 43 41 41 41 41 38 41 42 42 37 32 30 29 27 28 29 30 30 28 29 30 32 30 31 30 30 30 29 28 28 29 28 27 30 31 29 30 31 29 29 28 28 28 26
nan nan 40 40 39 39 39 39 39 39 39 nan nan nan nan nan nan nan nan nan nan nan nan nan 27 26 25 25 27 28 nan nan nan nan nan 28 33 38 40 40 42 42 41 41 41 40 42 41 39 35 33 30 27 27 27 28 28 27 28 29 30 33 35 34 34 34 33 33 31 30 29 31 31 30 32 32 31 31 31 31 31 30 30 30 29
nan nan nan nan nan nan 39 nan 39 nan nan nan nan nan nan nan nan nan nan nan nan nan nan nan nan nan nan nan nan nan nan nan nan nan nan nan nan nan nan nan 35 37 37 39 41 38 37 37 34 31 28 29 31 35 35 37 35 31 29 31 33 33 33 33 34 34 33 33 32 30 29 29 30 31 30 29 29 30 30 29 29 29 30 30 30
nan nan nan nan nan nan nan nan nan nan nan nan nan nan nan nan nan nan nan nan nan nan nan nan nan nan nan nan nan nan nan nan nan nan nan nan nan nan nan nan nan nan 29 33 34 35 35 37 39 37 33 32 31 34 35 33 31 32 33 34 34 34 32 31 32 33 33 33 32 31 30 30 30 29 28 28 28 29 29 28 27 28 27 25 25
nan nan nan nan nan nan nan nan nan nan nan nan nan nan nan nan nan nan nan nan nan nan nan nan nan nan nan nan nan nan nan nan nan nan nan nan nan nan nan nan nan nan nan nan nan nan nan nan 30 31 33 32 34 36 37 nan 37 nan nan nan 35 35 35 34 33 33 34 34 34 33 32 33 32 32 31 30 30 30 30 29 29 28 27 26 26
nan nan nan nan nan nan nan nan nan nan nan nan nan nan nan nan nan nan nan nan nan nan nan nan nan nan nan nan nan nan nan nan nan nan nan nan nan nan nan nan nan nan nan nan nan nan nan nan nan nan nan nan nan nan nan nan nan nan nan nan nan nan 38 38 nan nan nan nan nan nan nan nan 34 33 32 32 32 32 33 32 31 30 29 28 26
nan nan nan nan nan nan nan nan nan nan nan nan nan nan nan nan nan nan nan nan nan nan nan nan nan nan nan nan nan nan nan nan nan nan nan nan nan nan nan nan nan nan nan nan nan nan nan nan nan nan nan nan nan nan nan nan nan nan nan nan nan nan nan nan nan nan nan nan nan nan nan nan nan nan nan nan nan nan nan nan 31 31 30 29 28
nan nan nan nan nan nan nan nan nan nan nan nan nan nan nan nan nan nan nan nan nan nan nan nan nan nan nan nan nan nan nan nan nan nan nan nan nan nan nan nan nan nan nan nan nan nan nan nan nan nan nan nan nan nan nan nan nan nan nan nan nan nan nan nan nan nan nan nan nan nan nan nan nan nan nan nan nan nan nan nan nan 33 32 32 31
nan nan nan nan nan nan nan nan nan nan nan nan nan nan nan nan nan nan nan nan nan nan nan nan nan nan nan nan nan nan nan nan nan nan nan nan nan nan nan nan nan nan nan nan nan nan nan nan nan nan nan nan nan nan nan nan nan nan nan nan nan nan nan nan nan nan nan nan nan nan nan nan nan nan nan nan nan nan nan nan nan nan nan nan 34
nan nan nan nan nan nan nan nan nan nan nan nan nan nan nan nan nan nan nan nan nan nan nan nan nan nan nan nan nan nan nan nan nan nan nan nan nan nan nan nan nan nan nan nan nan nan nan nan nan nan nan nan nan nan nan nan nan nan nan nan nan nan nan nan nan nan nan nan nan nan nan nan nan nan nan nan nan nan nan nan nan nan nan nan nan
nan nan nan nan nan nan nan nan nan nan nan nan nan nan nan nan nan nan nan nan nan nan nan nan nan nan nan nan nan nan nan nan nan nan nan nan nan nan nan nan nan nan nan nan nan nan nan nan nan nan nan nan nan nan nan nan nan nan nan nan nan nan nan nan nan nan nan nan nan nan nan nan nan nan nan nan nan nan nan nan nan nan nan nan nan
nan nan nan nan nan nan nan nan nan nan nan nan nan nan nan nan nan nan nan nan nan nan nan nan nan nan nan nan nan nan nan nan nan nan nan nan nan nan nan nan nan nan nan nan nan nan nan nan nan nan nan nan nan nan nan nan nan nan nan nan nan nan nan nan nan nan nan nan nan nan nan nan nan nan nan nan nan nan nan nan nan nan nan nan nan
nan nan nan nan nan nan nan nan nan nan nan nan nan nan nan nan nan nan nan nan nan nan nan nan nan nan nan nan nan nan nan nan nan nan nan nan nan nan nan nan nan nan nan nan nan nan nan nan nan nan nan nan nan nan nan nan nan nan nan nan nan nan nan nan nan nan nan nan nan nan nan nan nan nan nan nan nan nan nan nan nan nan nan nan nan
nan nan nan nan nan nan nan nan nan nan nan nan nan nan nan nan nan nan nan nan nan nan nan nan nan nan nan nan nan nan nan nan nan nan nan nan nan nan nan nan nan nan nan nan nan nan nan nan nan nan nan nan nan nan nan nan nan nan nan nan nan nan nan nan nan nan nan nan nan nan nan nan nan nan nan nan nan nan nan nan nan nan nan nan nan
nan nan nan nan nan nan nan nan nan nan nan nan nan nan nan nan nan nan nan nan nan nan nan nan nan nan nan nan nan nan nan nan nan nan nan nan nan nan nan nan nan nan nan nan nan nan nan nan nan nan nan nan nan nan nan nan nan nan nan nan nan nan nan nan nan nan nan nan nan nan nan nan nan nan nan nan nan nan nan nan nan nan nan nan nan
nan nan nan nan nan nan nan nan nan nan nan nan nan nan nan nan nan nan nan nan nan nan nan nan nan nan nan nan nan nan nan nan nan nan nan nan nan nan nan nan nan nan nan nan nan nan nan nan nan nan nan nan nan nan nan nan nan nan nan nan nan nan nan nan nan nan nan nan nan nan nan nan nan nan nan nan nan nan nan nan nan nan nan nan nan
nan nan nan nan nan nan nan nan nan nan nan nan nan nan nan nan nan nan nan nan nan nan nan nan nan nan nan nan nan nan nan nan nan nan nan nan nan nan nan nan nan nan nan nan nan nan nan nan nan nan nan nan nan nan nan nan nan nan nan nan nan nan nan nan nan nan nan nan nan nan nan nan nan nan nan nan nan nan nan nan nan nan nan nan nan
nan nan nan nan nan nan nan nan nan nan nan nan nan nan nan nan nan nan nan nan nan nan nan nan nan nan nan nan nan nan nan nan nan nan nan nan nan nan nan nan nan nan nan nan nan nan nan nan nan nan nan nan nan nan nan nan nan nan nan nan nan nan nan nan nan nan nan nan nan nan nan nan nan nan nan nan nan nan nan nan nan nan nan nan nan
nan nan nan nan nan nan nan nan nan nan nan nan nan nan nan nan nan nan nan nan nan nan nan nan nan nan nan nan nan nan nan nan nan nan nan nan nan nan nan nan nan nan nan nan nan nan nan nan nan nan nan nan nan nan nan nan nan nan nan nan nan nan nan nan nan nan nan nan nan nan nan nan nan nan nan nan nan nan nan nan nan nan nan nan nan
nan nan nan nan nan nan nan nan nan nan nan nan nan nan nan nan nan nan nan nan nan nan nan nan nan nan nan nan nan nan nan nan nan nan nan nan nan nan nan nan nan nan nan nan nan nan nan nan nan nan nan nan nan nan nan nan nan nan nan nan nan nan nan nan nan nan nan nan nan nan nan nan nan nan nan nan nan nan nan nan nan nan nan nan nan
nan nan nan nan nan nan nan nan nan nan nan nan nan nan nan nan nan nan nan nan nan nan nan nan nan nan nan nan nan nan nan nan nan nan nan nan nan nan nan nan nan nan nan nan nan nan nan nan nan nan nan nan nan nan nan nan nan nan nan nan nan nan nan nan nan nan nan nan nan nan nan nan nan nan nan nan nan nan nan nan nan nan nan nan nan
nan nan nan nan nan nan nan nan nan nan nan nan nan nan nan nan nan nan nan nan nan nan nan nan nan nan nan nan nan nan nan nan nan nan nan nan nan nan nan nan nan nan nan nan nan nan nan nan nan nan nan nan nan nan nan nan nan nan nan nan nan nan nan nan nan nan nan nan nan nan nan nan nan nan nan nan nan nan nan nan nan nan nan nan nan
nan nan nan nan nan nan nan nan nan nan nan nan nan nan nan nan nan nan nan nan nan nan nan nan nan nan nan nan nan nan nan nan nan nan nan nan nan nan nan nan nan nan nan nan nan nan nan nan nan nan nan nan nan nan nan nan nan nan nan nan nan nan nan nan nan nan nan nan nan nan nan nan nan nan nan nan nan nan nan nan nan nan nan nan nan
nan nan nan nan nan nan nan nan nan nan nan nan nan nan nan nan nan nan nan nan nan nan nan nan nan nan nan nan nan nan nan nan nan nan nan nan nan nan nan nan nan nan nan nan nan nan nan nan nan nan nan nan nan nan nan nan nan nan nan nan nan nan nan nan nan nan nan nan nan nan nan nan nan nan nan nan nan nan nan nan nan nan nan nan nan
nan nan nan nan nan nan nan nan nan nan nan nan nan nan nan nan nan nan nan nan nan nan nan nan nan nan nan nan nan nan nan nan nan nan nan nan nan nan nan nan nan nan nan nan nan nan nan nan nan nan nan nan nan nan nan nan nan nan nan nan nan nan nan nan nan nan nan nan nan nan nan nan nan nan nan nan nan nan nan nan nan nan nan nan nan
nan nan nan nan nan nan nan nan nan nan nan nan nan nan nan nan nan nan nan nan nan nan nan nan nan nan nan nan nan nan nan nan nan nan nan nan nan nan nan nan nan nan nan nan nan nan nan nan nan nan nan nan nan nan nan nan nan nan nan nan nan nan nan nan nan nan nan nan nan nan nan nan nan nan nan nan nan nan nan nan nan nan nan nan nan
nan nan nan nan nan nan nan nan nan nan nan nan nan nan nan nan nan nan nan nan nan nan nan nan nan nan nan nan nan nan nan nan nan nan nan nan nan nan nan nan nan nan nan nan nan nan nan nan nan nan nan nan nan nan nan nan nan nan nan nan nan nan nan nan nan nan nan nan nan nan nan nan nan nan nan nan nan nan nan nan nan nan nan nan nan
nan nan nan nan nan nan nan nan nan nan nan nan nan nan nan nan nan nan nan nan nan nan nan nan nan nan nan nan nan nan nan nan nan nan nan nan nan nan nan nan nan nan nan nan nan nan nan nan nan nan nan nan nan nan nan nan nan nan nan nan nan nan nan nan nan nan nan nan nan nan nan nan nan nan nan nan nan nan nan nan nan nan nan nan nan
Wind_Direction
231 231 227 230 234 238 240 239 234 233 230 233 231 233 235 229 232 227 247 242 252 266 270 264 264 273 277 281 276 269 265 263 264 266 263 259 228 218 230 259 247 239 255 241 237 243 244 237 230 223 216 208 220 222 226 247 274 279 275 279 289 287 284 258 201 168 166 168 163 167 189 178 154 175 138 144 148 167 146 49 9 2 354 349 348
234 235 230 232 236 239 239 241 239 237 237 241 243 239 240 243 237 233 239 248 244 253 263 267 271 270 270 273 270 272 273 269 274 278 281 279 268 271 283 278 258 230 225 244 248 237 251 254 243 242 255 232 216 211 226 219 240 250 275 290 276 272 280 265 234 187 142 147 162 174 157 168 143 177 168 156 159 160 130 341 352 352 338 335 359
241 240 239 239 243 241 240 243 243 241 241 241 246 247 249 246 245 243 240 248 253 244 255 257 262 266 262 265 270 270 275 278 278 277 279 283 278 259 259 276 277 254 264 265 249 257 266 263 263 272 269 274 273 260 243 230 227 219 208 215 215 225 247 277 283 137 129 139 155 153 154 168 154 157 158 160 178 46 339 339 331 334 327 335 346
238 239 240 243 247 248 247 243 247 248 245 244 246 245 243 249 251 245 243 243 251 253 248 253 260 259 261 265 269 268 277 278 277 283 282 280 277 280 276 272 270 271 258 247 263 280 277 271 263 251 241 249 254 247 249 252 248 260 249 246 250 221 236 283 345 40 109 124 147 139 155 163 147 147 165 228 261 295 321 325 341 339 327 335 359
234 235 240 245 246 247 251 252 252 250 245 245 252 251 246 245 249 251 249 248 253 257 256 252 258 260 259 267 270 271 272 274 273 272 275 276 279 279 279 283 285 285 280 273 256 258 261 274 286 295 317 306 295 319 290 275 265 242 240 269 270 266 276 279 309 347 55 108 137 152 161 171 199 219 270 285 303 324 321 328 326 333 328 342 17
240 237 240 242 246 249 247 249 250 251 249 247 249 253 253 251 250 253 251 252 254 254 259 259 260 264 258 259 263 266 266 266 268 265 269 274 276 275 278 281 284 285 287 292 299 306 306 313 308 312 330 1 108 216 225 195 237 3 234 230 221 232 262 315 317 314 331 333 319 173 247 237 263 286 296 308 314 313 319 321 327 317 313 325 321
243 242 243 246 248 249 249 247 247 250 254 250 247 251 254 255 254 251 254 254 257 258 261 261 261 263 264 260 259 261 262 263 264 265 262 260 261 264 263 271 276 279 285 287 284 286 295 301 303 306 309 309 292 272 281 287 266 220 249 232 235 258 262 284 301 316 322 320 316 320 310 303 294 296 302 307 318 322 321 313 307 296 293 293 303
242 244 244 243 245 247 243 245 248 251 250 251 249 248 249 252 253 253 251 254 255 258 257 261 261 260 262 262 258 258 258 258 262 262 263 267 268 269 267 264 268 275 278 280 275 272 273 276 285 287 293 293 288 275 273 270 262 256 255 260 265 270 271 272 277 282 291 292 299 295 292 295 312 318 316 324 329 329 324 309 308 303 307 308 309
239 241 243 241 239 239 237 238 243 248 252 255 255 251 250 249 249 251 254 250 251 254 256 256 258 259 261 261 260 260 261 262 260 263 265 261 257 262 266 267 267 267 268 270 276 278 277 273 276 283 274 265 267 262 244 237 244 247 248 257 269 273 278 280 284 291 296 302 304 304 311 311 315 324 326 324 330 320 306 313 309 312 305 300 302
244 245 248 250 252 251 248 245 246 249 254 261 265 264 257 253 251 251 253 254 249 246 248 252 255 258 259 262 261 260 259 257 261 256 247 250 257 258 261 262 257 251 253 258 265 275 279 275 271 263 264 277 288 295 301 300 295 283 270 271 274 279 283 287 294 300 301 300 305 305 307 304 304 306 302 307 326 330 307 277 266 267 271 278 291
243 244 247 248 249 252 254 256 256 256 257 259 265 268 265 258 251 247 247 250 249 249 248 248 251 253 255 257 260 260 259 259 272 274 273 263 253 257 259 260 264 262 259 262 259 260 264 270 270 284 292 292 296 306 308 312 316 324 333 336 324 308 302 301 299 291 289 295 292 296 293 286 287 275 273 262 255 240 245 251 252 258 268 270 273
240 242 248 249 251 254 256 262 266 269 268 267 266 267 266 267 261 254 249 249 247 247 249 246 244 245 249 251 254 255 255 263 276 275 275 273 265 255 256 259 262 264 264 258 256 258 262 268 274 277 285 288 283 296 312 325 332 334 336 335 336 337 328 311 297 292 293 291 291 289 283 289 289 291 284 268 260 262 270 271 273 273 274 281 286
238 238 244 248 250 256 261 264 269 270 273 275 275 270 272 276 275 266 259 253 251 249 248 248 247 246 244 246 246 249 249 268 273 272 269 268 268 258 252 253 251 253 254 254 252 249 249 254 258 263 266 274 287 292 289 303 322 334 334 331 327 331 331 338 336 324 307 314 313 308 307 302 304 296 288 282 281 289 289 293 292 291 288 292 298
242 241 241 241 242 250 257 259 261 264 267 268 271 276 278 281 277 271 263 258 255 251 250 251 249 247 246 245 246 246 244 265 270 270 266 265 265 259 251 253 253 251 248 248 249 252 254 252 255 260 268 276 281 285 289 292 290 298 304 303 302 316 330 336 339 344 342 326 319 315 312 311 312 301 292 289 291 291 288 294 292 294 297 307 297
244 243 243 241 242 244 248 250 252 258 267 274 276 279 279 272 270 267 263 258 255 251 248 249 248 247 247 246 245 246 247 263 266 269 266 263 261 258 249 249 252 253 253 253 252 250 248 251 253 256 261 265 268 272 278 278 279 281 284 286 289 290 294 304 312 314 315 320 322 323 314 309 308 308 306 303 301 294 292 290 290 290 302 315 318
246 245 244 242 243 243 247 250 248 248 253 270 283 285 280 272 265 261 262 259 255 252 249 246 248 247 245 243 243 243 244 249 251 253 255 257 258 254 251 251 251 251 254 254 252 250 250 250 250 253 254 254 263 273 272 268 268 273 278 281 284 288 292 298 301 292 297 293 296 296 296 275 265 274 276 282 285 290 293 300 301 306 317 323 319
243 246 247 246 247 248 249 249 249 249 250 249 251 263 284 290 277 268 263 265 265 257 253 249 246 245 246 245 244 240 248 246 253 256 257 260 259 253 251 248 249 251 251 253 253 252 250 249 249 247 249 252 264 275 273 273 268 269 272 274 272 271 275 277 303 317 317 318 314 297 280 277 287 289 293 299 298 287 287 293 300 303 314 318 313
241 240 241 244 247 248 250 251 251 251 251 250 249 248 249 256 263 260 269 276 271 261 253 249 247 246 243 245 246 246 248 243 249 255 257 257 250 251 252 250 249 248 249 252 254 254 253 251 248 246 245 251 254 257 265 264 263 265 267 270 272 275 275 276 275 288 313 311 307 307 305 301 299 300 297 299 302 297 299 304 299 295 304 304 299
242 241 240 241 245 248 249 250 250 251 250 nan 247 247 244 241 253 265 265 261 257 251 248 250 249 245 244 245 242 242 249 246 243 246 249 252 248 251 251 252 250 250 250 251 256 256 257 258 262 257 250 254 252 254 252 252 256 259 261 262 266 267 269 262 265 264 267 273 279 283 287 293 294 291 295 310 315 308 305 306 298 299 301 300 296
241 242 242 243 243 245 246 248 248 248 249 nan nan 249 247 250 261 263 257 261 265 255 243 244 250 251 251 248 247 244 245 241 240 243 243 242 238 241 250 253 252 253 253 252 253 257 258 257 262 260 259 258 257 255 255 251 255 254 254 255 256 257 253 256 257 254 255 258 262 265 266 266 272 279 284 290 298 304 305 305 304 300 297 296 296
240 241 242 242 242 243 245 247 249 249 249 nan 253 256 nan 256 257 266 267 264 266 262 251 245 245 243 242 245 249 250 250 247 239 237 238 237 236 236 247 246 249 251 253 254 254 256 259 258 262 259 262 262 261 260 262 259 255 255 259 263 257 254 249 257 257 257 261 262 264 266 268 270 272 275 281 284 283 286 296 304 303 299 295 289 287
239 240 241 240 241 242 243 244 248 250 251 nan nan nan 260 263 262 264 266 267 271 269 263 258 259 255 244 238 241 248 250 248 243 242 236 234 235 234 240 247 244 245 245 251 251 248 250 256 262 259 257 255 255 253 252 255 258 264 262 253 249 250 259 264 265 267 269 266 265 265 266 268 270 274 273 272 274 276 274 274 278 281 286 290 286
240 241 242 242 242 242 243 243 245 nan nan nan nan nan nan nan 257 258 261 260 261 258 252 256 266 271 267 259 256 251 249 248 245 244 241 238 238 239 241 243 241 247 248 250 250 252 251 251 256 250 247 249 251 254 256 257 263 269 265 263 266 269 274 275 273 271 270 269 268 268 269 270 272 273 275 277 278 280 280 279 279 281 285 285 286
241 242 244 244 244 244 245 244 245 246 nan nan nan nan nan nan nan nan 251 nan nan nan 258 260 267 271 268 266 266 262 257 253 249 246 246 243 241 243 244 244 244 246 248 251 251 250 248 247 248 244 244 246 251 257 262 269 266 259 268 274 277 279 278 276 276 274 272 272 272 271 271 271 268 270 271 274 277 277 277 281 286 290 289 288 287
nan nan 242 245 247 248 248 249 248 247 248 nan nan nan nan nan nan nan nan nan nan nan nan nan 261 264 263 265 267 263 nan nan nan nan nan 251 248 244 246 249 248 245 246 252 255 251 248 245 245 246 249 250 254 256 260 271 275 274 275 279 283 280 281 276 271 269 269 269 271 271 271 272 274 271 269 272 273 273 278 282 282 282 282 283 285
nan nan nan nan nan nan 250 nan 251 nan nan nan nan nan nan nan nan nan nan nan nan nan nan nan nan nan nan nan nan nan nan nan nan nan nan nan nan nan nan nan 251 249 244 245 246 248 248 249 248 249 251 255 255 258 257 259 274 277 277 277 277 276 272 268 267 267 266 267 267 268 268 268 268 268 267 269 270 272 273 275 276 280 283 284 285
nan nan nan nan nan nan nan nan nan nan nan nan nan nan nan nan nan nan nan nan nan nan nan nan nan nan nan nan nan nan nan nan nan nan nan nan nan nan nan nan nan nan 249 250 250 250 253 254 251 252 250 251 253 254 257 266 268 270 272 273 266 260 262 265 263 262 263 263 264 262 261 262 262 264 267 268 270 272 274 275 276 275 274 277 279
nan nan nan nan nan nan nan nan nan nan nan nan nan nan nan nan nan nan nan nan nan nan nan nan nan nan nan nan nan nan nan nan nan nan nan nan nan nan nan nan nan nan nan nan nan nan nan nan 258 258 261 261 262 263 265 nan 257 nan nan nan 258 260 262 266 269 266 262 261 262 262 262 262 263 265 267 268 269 270 271 273 274 276 278 278 280
nan nan nan nan nan nan nan nan nan nan nan nan nan nan nan nan nan nan nan nan nan nan nan nan nan nan nan nan nan nan nan nan nan nan nan nan nan nan nan nan nan nan nan nan nan nan nan nan nan nan nan nan nan nan nan nan nan nan nan nan nan nan 263 264 nan nan nan nan nan nan nan nan 264 264 265 267 268 268 268 266 268 271 272 276 277
nan nan nan nan nan nan nan nan nan nan nan nan nan nan nan nan nan nan nan nan nan nan nan nan nan nan nan nan nan nan nan nan nan nan nan nan nan nan nan nan nan nan nan nan nan nan nan nan nan nan nan nan nan nan nan nan nan nan nan nan nan nan nan nan nan nan nan nan nan nan nan nan nan nan nan nan nan nan nan nan 270 270 271 272 272
nan nan nan nan nan nan nan nan nan nan nan nan nan nan nan nan nan nan nan nan nan nan nan nan nan nan nan nan nan nan nan nan nan nan nan nan nan nan nan nan nan nan nan nan nan nan nan nan nan nan nan nan nan nan nan nan nan nan nan nan nan nan nan nan nan nan nan nan nan nan nan nan nan nan nan nan nan nan nan nan nan 274 272 270 270
nan nan nan nan nan nan nan nan nan nan nan nan nan nan nan nan nan nan nan nan nan nan nan nan nan nan nan nan nan nan nan nan nan nan nan nan nan nan nan nan nan nan nan nan nan nan nan nan nan nan nan nan nan nan nan nan nan nan nan nan nan nan nan nan nan nan nan nan nan nan nan nan nan nan nan nan nan nan nan nan nan nan nan nan 272
nan nan nan nan nan nan nan nan nan nan nan nan nan nan nan nan nan nan nan nan nan nan nan nan nan nan nan nan nan nan nan nan nan nan nan nan nan nan nan nan nan nan nan nan nan nan nan nan nan nan nan nan nan nan nan nan nan nan nan nan nan nan nan nan nan nan nan nan nan nan nan nan nan nan nan nan nan nan nan nan nan nan nan nan nan
nan nan nan nan nan nan nan nan nan nan nan nan nan nan nan nan nan nan nan nan nan nan nan nan nan nan nan nan nan nan nan nan nan nan nan nan nan nan nan nan nan nan nan nan nan nan nan nan nan nan nan nan nan nan nan nan nan nan nan nan nan nan nan nan nan nan nan nan nan nan nan nan nan nan nan nan nan nan nan nan nan nan nan nan nan
nan nan nan nan nan nan nan nan nan nan nan nan nan nan nan nan nan nan nan nan nan nan nan nan nan nan nan nan nan nan nan nan nan nan nan nan nan nan nan nan nan nan nan nan nan nan nan nan nan nan nan nan nan nan nan nan nan nan nan nan nan nan nan nan nan nan nan nan nan nan nan nan nan nan nan nan nan nan nan nan nan nan nan nan nan
nan nan nan nan nan nan nan nan nan nan nan nan nan nan nan nan nan nan nan nan nan nan nan nan nan nan nan nan nan nan nan nan nan nan nan nan nan nan nan nan nan nan nan nan nan nan nan nan nan nan nan nan nan nan nan nan nan nan nan nan nan nan nan nan nan nan nan nan nan nan nan nan nan nan nan nan nan nan nan nan nan nan nan nan nan
nan nan nan nan nan nan nan nan nan nan nan nan nan nan nan nan nan nan nan nan nan nan nan nan nan nan nan nan nan nan nan nan nan nan nan nan nan nan nan nan nan nan nan nan nan nan nan nan nan nan nan nan nan nan nan nan nan nan nan nan nan nan nan nan nan nan nan nan nan nan nan nan nan nan nan nan nan nan nan nan nan nan nan nan nan
nan nan nan nan nan nan nan nan nan nan nan nan nan nan nan nan nan nan nan nan nan nan nan nan nan nan nan nan nan nan nan nan nan nan nan nan nan nan nan nan nan nan nan nan nan nan nan nan nan nan nan nan nan nan nan nan nan nan nan nan nan nan nan nan nan nan nan nan nan nan nan nan nan nan nan nan nan nan nan nan nan nan nan nan nan
nan nan nan nan nan nan nan nan nan nan nan nan nan nan nan nan nan nan nan nan nan nan nan nan nan nan nan nan nan nan nan nan nan nan nan nan nan nan nan nan nan nan nan nan nan nan nan nan nan nan nan nan nan nan nan nan nan nan nan nan nan nan nan nan nan nan nan nan nan nan nan nan nan nan nan nan nan nan nan nan nan nan nan nan nan
nan nan nan nan nan nan nan nan nan nan nan nan nan nan nan nan nan nan nan nan nan nan nan nan nan nan nan nan nan nan nan nan nan nan nan nan nan nan nan nan nan nan nan nan nan nan nan nan nan nan nan nan nan nan nan nan nan nan nan nan nan nan nan nan nan nan nan nan nan nan nan nan nan nan nan nan nan nan nan nan nan nan nan nan nan
nan nan nan nan nan nan nan nan nan nan nan nan nan nan nan nan nan nan nan nan nan nan nan nan nan nan nan nan nan nan nan nan nan nan nan nan nan nan nan nan nan nan nan nan nan nan nan nan nan nan nan nan nan nan nan nan nan nan nan nan nan nan nan nan nan nan nan nan nan nan nan nan nan nan nan nan nan nan nan nan nan nan nan nan nan
nan nan nan nan nan nan nan nan nan nan nan nan nan nan nan nan nan nan nan nan nan nan nan nan nan nan nan nan nan nan nan nan nan nan nan nan nan nan nan nan nan nan nan nan nan nan nan nan nan nan nan nan nan nan nan nan nan nan nan nan nan nan nan nan nan nan nan nan nan nan nan nan nan nan nan nan nan nan nan nan nan nan nan nan nan
nan nan nan nan nan nan nan nan nan nan nan nan nan nan nan nan nan nan nan nan nan nan nan nan nan nan nan nan nan nan nan nan nan nan nan nan nan nan nan nan nan nan nan nan nan nan nan nan nan nan nan nan nan nan nan nan nan nan nan nan nan nan nan nan nan nan nan nan nan nan nan nan nan nan nan nan nan nan nan nan nan nan nan nan nan
nan nan nan nan nan nan nan nan nan nan nan nan nan nan nan nan nan nan nan nan nan nan nan nan nan nan nan nan nan nan nan nan nan nan nan nan nan nan nan nan nan nan nan nan nan nan nan nan nan nan nan nan nan nan nan nan nan nan nan nan nan nan nan nan nan nan nan nan nan nan nan nan nan nan nan nan nan nan nan nan nan nan nan nan nan
nan nan nan nan nan nan nan nan nan nan nan nan nan nan nan nan nan nan nan nan nan nan nan nan nan nan nan nan nan nan nan nan nan nan nan nan nan nan nan nan nan nan nan nan nan nan nan nan nan nan nan nan nan nan nan nan nan nan nan nan nan nan nan nan nan nan nan nan nan nan nan nan nan nan nan nan nan nan nan nan nan nan nan nan nan
nan nan nan nan nan nan nan nan nan nan nan nan nan nan nan nan nan nan nan nan nan nan nan nan nan nan nan nan nan nan nan nan nan nan nan nan nan nan nan nan nan nan nan nan nan nan nan nan nan nan nan nan nan nan nan nan nan nan nan nan nan nan nan nan nan nan nan nan nan nan nan nan nan nan nan nan nan nan nan nan nan nan nan nan nan
nan nan nan nan nan nan nan nan nan nan nan nan nan nan nan nan nan nan nan nan nan nan nan nan nan nan nan nan nan nan nan nan nan nan nan nan nan nan nan nan nan nan nan nan nan nan nan nan nan nan nan nan nan nan nan nan nan nan nan nan nan nan nan nan nan nan nan nan nan nan nan nan nan nan nan nan nan nan nan nan nan nan nan nan nan
nan nan nan nan nan nan nan nan nan nan nan nan nan nan nan nan nan nan nan nan nan nan nan nan nan nan nan nan nan nan nan nan nan nan nan nan nan nan nan nan nan nan nan nan nan nan nan nan nan nan nan nan nan nan nan nan nan nan nan nan nan nan nan nan nan nan nan nan nan nan nan nan nan nan nan nan nan nan nan nan nan nan nan nan nan
nan nan nan nan nan nan nan nan nan nan nan nan nan nan nan nan nan nan nan nan nan nan nan nan nan nan nan nan nan nan nan nan nan nan nan nan nan nan nan nan nan nan nan nan nan nan nan nan nan nan nan nan nan nan nan nan nan nan nan nan nan nan nan nan nan nan nan nan nan nan nan nan nan nan nan nan nan nan nan nan nan nan nan nan nan
nan nan nan nan nan nan nan nan nan nan nan nan nan nan nan nan nan nan nan nan nan nan nan nan nan nan nan nan nan nan nan nan nan nan nan nan nan nan nan nan nan nan nan nan nan nan nan nan nan nan nan nan nan nan nan nan nan nan nan nan nan nan nan nan nan nan nan nan nan nan nan nan nan nan nan nan nan nan nan nan nan nan nan nan nan
nan nan nan nan nan nan nan nan nan nan nan nan nan nan nan nan nan nan nan nan nan nan nan nan nan nan nan nan nan nan nan nan nan nan nan nan nan nan nan nan nan nan nan nan nan nan nan nan nan nan nan nan nan nan nan nan nan nan nan nan nan nan nan nan nan nan nan nan nan nan nan nan nan nan nan nan nan nan nan nan nan nan nan nan nan